Wind_Speed
13 10 0 3 4 5 1 1 1 1 4 4 4 10 9 3 2 4 11 18 15 11 10 10 10 11 11 12 13 15 15 16 15 14 14 13 13 13 12 12 11 10 9 9 7 6 3 2 4
14 5 2 2 4 4 4 2 3 3 9 10 10 5 6 3 3 5 6 14 12 11 11 10 10 11 13 14 15 15 15 16 16 16 15 15 15 15 14 12 11 10 9 8 7 6 4 1 1
8 4 3 4 3 4 4 3 5 7 12 2 5 5 3 3 2 4 14 15 15 15 12 12 12 14 15 16 15 16 17 18 18 17 16 15 16 15 16 14 13 12 10 9 7 5 3 1 1
5 6 4 4 3 2 6 6 4 7 6 6 5 7 2 3 1 9 19 17 16 16 14 14 14 14 16 17 17 16 16 15 14 13 12 15 15 14 17 17 15 15 13 10 8 6 3 1 2
4 3 4 3 1 2 3 6 6 4 3 4 3 6 4 2 13 18 19 17 19 16 14 15 15 15 17 16 17 16 16 14 14 13 12 13 13 12 13 15 14 16 15 14 13 9 7 3 2
4 3 4 3 2 1 2 5 6 4 3 5 6 6 5 7 14 17 18 18 19 17 15 14 14 15 16 16 16 13 12 11 11 12 11 9 11 12 11 15 14 14 14 15 14 13 11 7 4
5 4 4 3 5 3 5 4 5 6 6 4 10 6 2 5 16 17 18 20 19 16 17 16 15 15 16 15 14 9 9 8 8 7 7 7 8 8 9 12 15 15 15 16 15 12 14 14 7
4 4 4 3 7 6 5 5 5 6 3 4 5 7 5 10 19 20 19 20 18 17 18 17 17 17 16 13 10 8 7 7 8 7 7 7 7 7 9 10 13 14 14 15 14 14 12 15 13
3 4 2 4 6 4 4 5 1 3 6 2 2 6 8 26 23 22 20 19 19 19 18 16 15 15 13 12 8 5 5 6 7 8 8 7 7 7 8 9 9 14 10 11 11 11 10 12 11
4 4 7 4 4 6 6 6 9 5 5 1 1 2 23 26 27 26 22 20 20 20 19 19 17 16 14 10 7 4 4 5 7 9 9 8 8 8 8 8 8 8 10 10 11 11 11 12 14
4 5 5 3 1 5 5 4 4 9 5 7 11 10 10 15 24 24 27 27 24 20 18 17 17 16 13 10 8 5 4 5 6 8 9 9 9 10 10 10 10 11 12 12 12 12 12 13 14
3 5 4 3 1 4 5 4 5 8 8 10 14 17 14 9 16 24 26 27 25 21 19 18 16 16 14 11 9 7 5 6 6 7 8 9 10 10 11 12 13 14 15 15 16 16 15 14 14
4 4 4 4 4 3 2 7 7 8 5 6 12 13 12 10 17 27 32 29 27 24 22 20 18 16 15 13 10 9 8 7 6 5 7 8 9 10 10 11 12 14 15 16 16 17 18 18 18
4 5 4 5 4 3 4 5 4 6 4 8 15 15 11 12 21 24 30 33 31 28 26 23 20 18 16 13 11 10 8 8 6 4 5 7 7 8 9 9 11 12 14 14 15 17 18 18 19
3 3 2 5 5 5 5 7 11 5 7 11 11 10 10 12 23 25 35 35 34 31 28 26 22 19 16 13 12 10 8 7 5 3 3 4 5 7 7 7 8 10 12 12 15 15 17 18 20
4 2 1 5 8 5 8 11 10 10 13 12 12 11 10 12 19 31 34 35 33 31 31 27 23 21 17 15 13 10 7 6 5 3 1 2 2 4 5 5 6 8 11 11 15 16 18 19 20
3 4 7 7 12 4 7 9 7 10 15 15 15 14 14 11 14 28 33 33 35 33 32 28 24 22 18 16 13 10 8 6 5 2 2 1 0 1 3 3 4 6 7 8 9 12 13 16 17
7 6 5 6 6 6 8 16 9 5 15 20 17 17 15 15 20 31 35 32 32 34 31 28 25 22 19 17 15 11 9 7 5 3 2 1 1 1 2 4 5 5 6 8 7 11 10 14 14
4 5 5 4 6 9 15 20 19 12 9 13 13 15 17 21 22 24 34 31 30 34 32 29 27 25 23 22 17 12 11 9 7 5 5 3 3 1 4 5 6 6 7 8 8 10 11 15 15
8 8 9 8 8 10 9 20 18 7 10 16 21 17 20 17 13 19 30 35 37 36 34 31 29 28 26 22 18 10 12 9 7 8 7 6 5 4 6 7 8 6 9 8 11 11 11 14 15
11 14 6 9 3 4 4 11 8 9 16 19 20 18 19 21 22 17 24 32 38 40 38 34 32 30 27 22 17 13 10 8 9 9 9 7 6 5 7 8 5 8 8 10 12 12 13 17 14
16 8 14 10 4 7 6 14 8 7 15 10 20 20 22 22 21 18 22 28 35 40 41 37 33 32 29 24 20 18 15 12 11 10 9 7 6 6 6 4 7 8 10 11 11 15 15 14 18
9 8 9 6 5 1 5 4 3 4 7 15 13 21 23 22 20 22 23 35 39 39 44 39 35 35 31 27 22 20 17 13 10 10 9 8 7 8 7 7 9 9 10 12 15 12 19 19 20
4 3 6 4 3 5 10 8 24 9 15 14 15 11 16 17 20 19 27 29 32 36 41 39 37 37 33 29 25 22 19 15 14 13 12 10 10 9 8 10 9 12 11 14 13 20 19 20 21
4 6 3 4 2 11 11 8 22 8 8 11 15 16 11 14 15 15 18 21 29 34 39 41 40 40 36 33 29 25 20 17 17 14 14 12 12 11 11 10 12 13 15 16 18 21 22 23 24
9 9 7 8 7 12 6 10 13 12 20 20 15 12 6 9 14 17 21 25 31 34 36 39 40 40 38 35 32 27 21 20 18 17 17 16 16 13 12 13 14 15 18 20 21 23 25 27 27
9 9 9 7 1 2 6 9 11 8 10 9 11 9 11 11 15 18 16 25 29 33 38 41 40 40 40 37 33 29 24 22 19 18 17 16 15 14 14 13 16 19 19 20 23 26 28 28 29
10 6 2 0 7 11 10 6 12 5 15 14 10 12 12 9 9 11 14 22 29 32 35 37 41 43 42 38 35 30 26 23 20 18 15 15 14 13 13 15 18 17 19 22 25 28 28 29 29
2 9 5 5 7 13 16 12 9 17 16 12 12 13 14 12 14 13 13 21 26 28 32 36 38 38 40 39 36 30 28 24 22 19 15 15 14 13 14 16 16 20 23 24 25 27 30 30 31
19 17 21 13 16 5 15 23 2 7 8 9 15 10 7 8 8 9 10 16 22 27 30 34 35 37 41 41 36 33 30 26 24 20 16 15 14 13 14 16 19 21 24 25 26 30 30 31 31
Wind_Direction
339 353 347 82 60 63 104 302 162 117 58 330 87 98 116 43 81 180 115 123 128 125 130 114 111 105 104 104 96 95 93 89 84 82 81 76 71 68 64 65 62 58 52 52 47 47 67 111 86
338 20 114 86 86 82 284 305 121 65 135 135 93 82 48 54 52 92 102 136 133 137 124 118 115 108 106 106 103 98 90 85 82 79 77 74 69 64 58 58 56 53 51 50 49 50 63 96 115
355 39 79 91 98 142 181 224 164 120 161 114 99 56 83 126 97 95 143 129 119 119 117 125 118 115 115 108 103 98 94 89 82 80 74 71 66 62 52 52 51 46 42 43 47 49 58 109 186
357 20 34 84 131 195 179 191 202 145 128 65 107 76 45 322 70 130 138 123 114 116 118 119 117 119 116 115 106 100 93 83 73 68 69 62 59 56 49 47 47 43 40 39 36 39 36 17 273
44 56 67 93 201 170 191 181 153 160 85 125 144 156 130 57 120 127 138 125 118 121 125 123 125 125 123 113 104 98 90 83 77 75 78 65 53 50 46 39 40 39 41 37 33 30 21 6 329
44 88 68 160 215 309 284 179 145 147 131 169 85 113 183 156 138 122 141 131 119 122 129 128 131 129 120 111 101 96 96 88 78 74 86 71 56 62 49 43 45 35 30 25 28 24 20 6 351
106 86 178 166 178 172 216 190 155 154 151 222 146 123 243 199 152 136 129 137 130 129 131 132 132 127 116 104 97 99 83 73 68 63 60 63 52 51 47 47 39 34 36 38 28 21 26 24 3
102 94 163 214 183 218 212 158 120 137 173 109 144 169 191 202 163 153 131 141 145 146 137 135 132 125 118 118 121 102 78 64 55 50 53 46 47 45 43 43 38 34 31 32 34 42 23 17 26
76 70 199 197 151 229 184 152 56 61 111 62 303 159 193 164 162 154 150 138 138 157 153 154 149 139 142 138 129 120 83 55 46 46 42 36 40 38 33 36 28 32 27 26 25 30 26 14 12
94 125 213 198 198 205 198 167 151 126 142 44 36 54 159 157 163 155 156 151 148 147 151 156 158 161 158 152 154 134 94 57 43 49 48 44 45 47 36 36 28 20 16 11 9 7 8 13 19
176 191 214 223 201 153 181 185 183 133 230 194 178 171 177 166 173 172 172 169 167 164 165 169 168 169 178 175 164 148 118 85 59 54 49 43 49 50 55 53 44 34 28 19 11 7 6 1 2
181 229 191 208 152 129 184 169 206 182 214 176 178 177 177 189 180 186 184 182 173 175 181 188 193 196 194 186 168 155 140 110 86 62 49 43 48 52 55 53 47 39 33 33 29 23 16 8 1
194 235 213 180 192 226 164 211 205 221 240 200 168 171 184 189 200 196 191 185 183 181 187 195 197 193 189 182 168 156 139 124 105 73 48 40 49 53 58 58 47 38 34 31 25 19 11 6 1
211 211 189 206 230 247 197 242 176 229 179 158 170 187 192 187 190 185 185 186 187 190 192 193 194 193 188 182 171 157 143 132 127 95 48 37 44 47 51 53 44 37 29 26 19 12 11 7 1
153 144 265 229 214 241 146 270 229 190 179 168 191 199 202 208 196 191 191 190 193 195 192 194 192 193 189 185 177 165 150 145 137 114 51 27 35 37 44 46 39 32 23 18 12 13 6 5 359
157 77 220 264 173 244 134 260 247 187 169 196 203 209 211 219 211 204 198 197 199 196 194 191 193 193 191 186 181 175 162 159 147 136 86 41 29 30 33 39 36 27 14 7 2 4 4 3 5
334 227 216 301 196 147 171 257 256 172 189 204 210 212 215 224 229 212 205 200 202 200 194 191 194 195 189 185 184 181 176 173 169 171 176 100 40 17 14 23 20 9 2 357 353 355 358 356 355
207 222 238 223 218 195 211 250 257 207 197 216 212 215 215 218 222 214 212 207 203 199 198 197 195 194 189 185 183 182 183 185 191 200 208 218 271 339 351 1 0 344 338 342 342 346 343 350 338
196 216 231 246 218 182 222 236 246 235 209 232 228 218 216 219 221 212 212 207 198 196 197 197 193 191 188 185 182 189 193 195 204 218 212 235 263 317 331 334 331 316 322 326 328 335 334 339 338
241 260 266 270 252 181 238 243 243 208 221 219 227 221 221 222 213 203 203 203 196 194 197 198 198 194 195 202 201 197 193 206 212 207 220 238 251 270 314 311 306 300 312 313 325 316 318 329 331
235 234 240 235 286 251 313 268 250 243 229 232 238 231 224 217 212 203 199 199 194 193 192 194 196 196 198 203 200 191 187 200 211 213 210 233 242 264 290 290 295 313 319 323 329 322 321 317 320
241 211 231 245 182 248 159 278 228 240 247 220 234 235 229 220 217 205 201 199 194 197 201 200 198 197 201 206 205 201 202 200 211 211 224 223 238 263 277 282 308 308 317 320 325 327 325 321 319
237 187 207 216 217 5 207 272 203 249 267 265 240 233 228 222 209 200 198 198 196 194 202 203 202 200 201 206 207 203 202 212 210 218 222 231 238 251 247 287 301 306 313 314 317 318 323 318 313
139 105 33 43 95 256 211 182 272 218 224 245 259 262 227 207 204 203 198 191 192 192 198 201 201 200 201 201 204 206 204 210 213 221 227 232 245 241 252 292 296 303 295 306 302 313 313 311 305
157 109 271 281 191 243 168 202 241 251 239 221 248 268 232 199 194 185 179 186 185 186 192 199 202 198 198 200 202 204 208 214 221 227 229 235 241 244 270 287 298 298 294 298 302 308 306 306 298
204 178 185 211 221 258 175 227 245 219 243 255 233 244 227 201 191 187 187 186 186 186 188 192 196 196 197 198 200 202 210 216 223 232 235 239 239 254 272 280 294 296 294 294 298 304 304 303 295
208 214 222 283 160 320 218 274 281 256 261 262 242 240 229 205 194 191 184 185 183 186 190 191 193 196 199 200 199 202 209 212 224 231 238 241 244 257 269 274 292 295 299 302 305 305 304 304 301
201 168 185 175 249 251 259 264 243 308 241 246 254 233 238 208 200 187 181 181 187 189 189 191 196 195 200 200 200 205 209 214 222 224 225 234 248 257 267 284 291 294 300 305 307 304 304 302 298
197 224 218 179 191 242 258 254 197 228 232 235 235 233 233 208 202 188 184 185 182 180 185 189 193 194 198 201 202 208 208 215 217 219 231 242 249 266 274 287 290 299 303 306 305 306 305 301 299
232 229 221 231 241 243 246 257 177 221 263 254 252 242 226 206 201 183 176 164 174 181 183 189 190 193 198 202 206 209 210 214 213 219 235 241 252 267 280 286 294 299 302 304 304 308 306 304 302
Height
796 795 794 796 825 831 843 832 818 820 823 817 813 818 829 829 834 858 832 830 832 833 833 834 834 833 833 833 833 832 832 831 830 830 829 829 827 826 826 824 824 823 823 822 821 821 821 820 820
795 793 795 804 834 854 851 826 826 818 819 817 816 821 828 838 826 829 832 832 832 832 834 834 834 833 833 833 834 834 833 832 832 831 831 830 829 828 827 826 825 824 823 822 821 821 820 821 821
793 792 801 820 837 845 849 826 821 817 813 812 822 824 829 833 827 829 831 832 832 832 833 834 834 834 835 834 835 835 834 834 833 832 832 831 830 829 828 826 825 824 823 822 821 821 821 821 821
793 794 805 831 833 826 826 822 813 812 813 815 822 835 829 827 827 828 831 831 831 832 834 834 834 835 836 835 835 836 835 835 834 833 833 832 831 830 829 827 826 825 824 822 821 821 821 821 821
794 804 830 838 829 821 817 813 812 815 816 819 820 837 834 828 828 829 831 832 831 832 834 835 835 836 836 836 837 837 836 835 834 833 833 832 831 830 829 828 827 825 824 823 821 821 821 821 821
808 812 837 846 833 821 815 809 810 815 820 820 826 833 834 828 828 830 831 832 832 832 834 835 836 836 837 838 838 838 836 836 835 834 833 832 831 830 829 828 827 826 825 823 822 821 820 820 820
812 826 836 833 837 828 818 807 812 818 822 819 819 836 832 827 828 829 830 831 832 834 835 836 837 837 838 839 838 837 837 836 835 834 833 832 831 829 828 828 827 826 825 824 823 822 821 820 820
810 821 829 827 835 829 810 808 807 812 819 814 815 833 835 824 826 828 830 831 832 834 835 836 837 838 838 838 838 837 837 836 835 834 834 832 831 830 829 828 827 827 825 824 823 822 822 821 820
805 833 839 823 829 817 808 811 805 807 815 816 815 816 813 819 824 826 828 831 832 834 835 836 836 837 837 837 837 837 836 835 835 835 834 832 831 830 829 828 826 826 825 824 823 823 822 821 820
818 838 827 809 809 814 808 807 807 813 819 820 817 813 812 817 821 823 825 827 830 832 833 834 835 835 836 836 837 836 836 835 834 835 834 833 831 830 829 828 826 825 825 824 824 823 822 821 820
813 827 810 805 801 802 807 808 804 813 821 814 816 814 813 816 818 820 822 823 826 829 831 833 834 834 834 835 835 835 835 835 834 834 834 833 832 830 829 828 827 827 826 824 823 822 821 821 819
813 805 802 802 799 801 810 803 807 807 804 798 804 805 809 811 813 816 818 820 822 825 828 830 831 832 833 833 833 834 834 834 834 834 834 832 831 831 829 828 828 827 826 825 824 822 821 820 819
810 805 800 800 800 801 801 806 806 806 798 798 802 805 807 809 810 812 813 816 819 821 824 826 828 830 831 831 831 832 832 832 832 833 833 832 831 831 830 829 828 827 826 825 824 823 821 819 818
802 804 803 803 802 801 806 805 803 799 799 800 800 802 803 803 803 807 809 811 813 817 819 822 825 827 829 829 830 830 830 830 831 831 831 831 831 830 829 829 828 828 827 826 825 824 822 821 819
802 810 807 807 804 806 801 811 806 795 798 800 801 800 800 799 800 800 802 804 808 811 815 818 821 824 827 827 828 828 828 829 829 829 830 831 830 830 829 829 829 828 827 827 826 824 822 820 818
811 814 830 807 805 801 805 821 795 793 797 801 800 799 798 796 794 796 798 801 804 807 810 815 818 821 823 825 826 826 826 826 827 828 829 830 830 829 829 830 829 828 827 827 826 824 822 821 819
825 839 833 818 801 801 807 811 788 789 793 795 796 795 794 794 792 793 794 797 799 803 807 811 814 817 820 822 823 824 824 825 826 826 827 828 829 829 829 829 829 828 828 827 826 825 823 821 819
834 834 824 818 800 803 809 802 791 787 791 785 786 788 789 788 782 785 788 792 796 800 804 807 810 813 816 819 821 821 822 823 824 825 826 827 827 828 828 827 827 827 827 826 826 825 823 821 819
813 818 813 800 791 802 803 794 784 782 789 786 784 782 781 776 773 781 784 788 792 796 799 802 806 809 812 815 817 818 819 821 822 823 824 825 825 826 826 825 825 825 825 825 824 823 821 819 817
812 817 816 801 787 796 796 789 775 780 778 773 768 770 769 770 772 773 777 780 784 788 792 797 801 804 808 810 812 814 816 818 819 820 821 822 823 823 824 824 824 824 824 823 822 820 819 817 816
807 808 808 803 785 787 789 784 778 765 763 758 755 754 756 755 757 762 768 770 775 779 783 789 794 799 803 806 808 810 813 815 817 817 818 819 820 821 821 822 822 822 821 820 820 818 817 815 814
805 789 791 794 800 816 789 786 776 768 761 755 748 743 742 741 744 751 756 762 765 770 777 782 788 792 797 801 803 805 808 811 813 814 815 817 818 818 819 819 820 819 818 818 817 816 815 813 811
789 781 787 786 797 799 796 812 764 757 759 746 738 729 724 724 732 736 741 745 753 762 769 776 781 786 791 794 798 801 804 807 809 811 813 814 815 816 817 817 817 816 815 815 814 813 812 811 809
776 783 795 802 808 818 787 798 740 755 741 729 717 717 714 717 720 725 732 741 748 755 762 769 775 780 784 788 792 795 799 803 805 808 809 810 811 813 813 814 813 812 812 812 810 809 808 806 805
778 798 824 822 824 798 775 791 736 732 728 725 716 707 706 706 713 720 727 733 740 746 753 761 767 772 778 782 786 790 794 798 801 803 805 806 807 809 809 809 809 808 808 807 806 805 803 802 799
784 786 808 816 813 774 777 777 730 719 704 699 703 700 702 706 705 710 714 721 729 737 745 753 759 765 771 776 780 785 790 793 796 798 800 802 803 804 805 805 804 804 803 802 801 800 798 796 793
771 787 765 783 784 797 773 748 720 714 711 706 705 702 700 700 700 702 708 714 722 730 735 742 751 758 764 769 775 780 784 788 791 794 796 797 799 800 800 800 800 799 798 797 796 794 792 789 787
758 760 783 792 792 792 762 762 737 718 703 698 703 701 693 695 698 699 703 708 714 721 730 738 745 749 756 763 769 774 778 783 786 789 791 793 794 795 795 795 795 794 793 792 790 787 785 782 780
765 762 765 769 774 764 757 734 714 703 696 697 693 690 688 690 691 691 696 702 708 716 724 730 737 744 750 757 763 768 773 778 781 784 786 788 790 791 790 790 790 789 787 786 784 781 778 775 772
735 738 738 752 750 765 738 709 688 697 697 695 685 681 685 686 689 690 694 699 706 711 717 723 730 736 742 749 756 762 767 772 775 778 781 783 785 785 785 785 784 783 782 780 778 775 772 768 765